Simultaneous Nadir Overpasses (SNOs) Predictions

Prediction of SNOs between GOES-16 and TERRA Satellite Orbit:

Table of predicted SNOs for the next 14.0 days since TLE Epoch: 12/18/2021
Index Date Time (GOES-16) GOES-16 Lat,Lon TERRA Lat,Lon Distance(km) Time Diff (sec)
1 12/19/2021 03:20:57 0.03, -75.19 0.14, -74.54 73.18 80
2 12/21/2021 03:08:43 0.03, -75.18 0.77, -71.58 408.33 80
3 12/21/2021 15:29:57 -0.03, -75.19 0.32, -76.74 176.52 80
4 12/23/2021 15:20:24 -0.02, -75.19 -0.31, -73.79 159.46 80
5 12/24/2021 03:41:47 0.02, -75.18 -0.77, -78.98 432.44 80
6 12/25/2021 15:08:10 -0.02, -75.19 -0.94, -70.83 496.09 80
7 12/26/2021 03:29:33 0.02, -75.18 -0.13, -76.03 95.71 80
8 12/28/2021 03:14:38 0.02, -75.19 0.45, -73.06 241.58 80
9 12/28/2021 15:35:53 -0.02, -75.21 0.64, -78.22 343.07 80
10 12/30/2021 15:23:39 -0.02, -75.22 -0.01, -75.27 5.61 80
